Погода в Мариуполе

Погода в Мариуполе : погода сейчас, прогноз погоды и архив. Всё, что Вы хотите узнать о погоде в Мариуполе!

Поиск расширенной информации на нашем сайте:

Другие новости

Новости СМИ2

Главная страница сайта

Новости сайта

02.10.2013

Напоминаем, что на нашем новом сайте вы можете получить высокодетализированные прогнозы погоды по пунктам России, СНГ и мира (включающие важные для авиации метеовеличины, такие как направление и скорость ветра, видимость, явления погоды, количество и форма облачности, нижняя и верхняя граница облачности), а также ознакомиться с разнообразными материалами по авиационной метеорологии и подборкой полезных ссылок на эту тему.

Сайт Метеоцентр.Азия посвящён разработке технологий оптимизации авиаметеорологического обслуживания, включая проектирование и перспективное создание нескольких автоматизированных авиаметеорологических систем:
- система выпуска высокодетальных прогностических карт явлений погоды для нижнего воздушного пространства по России и ближнему зарубежью;
- система верификации прогнозов TAF (выпускаемых синоптиками официальных АМСГ РФ и ближнего зарубежья) и AUTOTAF (выпускаемых сайтом Метеоцентр.Азия) - выявление ошибок, онлайн-сопоставление с фактической погодой METAR, автоматическое внесение коррективов в прогнозы при резком отклонении фактической погоды от прогноза, подсчёт оправдываемости прогнозов по элементам и в целом;
- система обработки, анализа и отображения авиаметеорологической информации для применения провайдерами метеорологической информации.

Рекомендуем: Деревянные окна

Погода в Мариуполе - сегодня

Время (UTC), дата Ветер
(°,м/с) 
Видим.   Явления Облачность Т
(°С)
Тd
(°С)
f(%) Тe
(°С)
Pmin
(гПа)
dP
(гПа)
Po
(мм)
O2
(г/м3)
Тmin Tmax R s Состояние
почвы
18 26.08.16 340 (С) 10 км    10/10 660 м кучево-дожд. 
[Cb cap]
+19.3 +17 87 +32  1016.7  0.6  756  281    +20.9       
03 27.08.16 360 (С) 10 км    3/0 верхняя 
[Cs]
+17.6 +16.7 94 +29  1017.7  0.7  757  283           
06 27.08.16 070 (В) 10 км    1/0 верхняя 
[Cs]
+23.2 +18.4 74 +38  1018.2  0.6  758  277  +17.3         
09 27.08.16 110 (В) 10 км    8/3 600 м средняя, верхняя 
[Cu hum|Ac trans|Cs]
+25.7 +19 67 +42  1018.8  0.7  758  275           
12 27.08.16 140 (ЮВ) 20000 м    3/3 600 м верхняя 
[Cu med, cong|Ci fib]
+27.1 +17.2 55 +40  1018.1  -0.7  758  274           
15 27.08.16 110 (В) 20000 м    4/3 600 м средняя, верхняя 
[Cu med, cong|Ac As|Ci fib]
+27.4 +17.9 56 +41  1017.5  -0.5  757  273           
18 27.08.16 020 (С) 20000 м    ясно 
+25.5 +16.9 59 +37  1018.2  0.6  758  276    +28.4       
21 27.08.16 050 (СВ) 20000 м    ясно 
+24.5 +13.7 51 +31  1018  -0.2  758  277           
00 28.08.16 050 (СВ) 20000 м    ясно 
+22.8 +12.6 53 +27  1018.1  758  279           
03 28.08.16 020 (С) 10 км    3/0 верхняя 
[Cs]
+21.7 +12.3 55 +26  1018.3  0.2  758  280           
06 28.08.16 070 (В) 20000 м    ясно 
+25.3 +13.5 48 +31  1018.7  0.5  758  277  +21.5         
09 28.08.16 140 (ЮВ) 20000 м    ясно 
+27.7 +18.5 57 +43  1018.3  -0.3  758  273           
12 28.08.16 110 (В) 20000 м    3/3 1000 м 
[Cu hum]
+28.2 +19.4 59 +45  1017  -1.3  757  272           
15 28.08.16 090 (В) 20000 м    ясно 
+28.3 +16.6 49 +40  1016.7  -0.3  757  273           
18 28.08.16 020 (С) 10 км    ясно 
+27.8 +12.1 38 +32  1017.1  0.4  757  275    +28.7       
21 28.08.16 020 (С) 10 км    ясно 
+25.4 +12.6 45 +30  1016.9  -0.3  757  277           
00 29.08.16 050 (СВ) 10 км    ясно 
+24.1 +11.9 46 +28  1016.8  -0.1  757  278           
03 29.08.16 050 (СВ) 10 км    ясно 
+22.6 +12.4 52 +27  1016.9  757  279           
06 29.08.16 080 (В) 10 км    1/0 средняя 
[Ac trans]
+26.7 +14.3 47 +34  1017  0.2  757  275  +22.2         
09 29.08.16 110 (В) 20000 м    3/0 верхняя 
[Cc]
+28.1 +16.1 48 +38  1016.5  -0.4  756  273           
12 29.08.16 090 (В) 20000 м    3/0 верхняя 
[Cc]
+30.2 +15.6 41 +40  1015.1  -1.4  755  271           
15 29.08.16 100 (В) 20000 м    3/0 верхняя 
[Cc]
+29.1 +16.4 46 +40  1013.9  -1.2  755  271           
18 29.08.16 090 (В) 20000 м    ясно 
+29 +12 35 +33  1014.1  0.2  755  273    +30.6       
21 29.08.16 080 (В) 20000 м    ясно 
+26.7 +16.3 53 +38  1013.9  -0.2  755  273           
00 30.08.16 080 (В) 20000 м    ясно 
+24.2 +13.2 50 +30  1013.6  -0.4  754  277           
Время (UTC), дата Ветер
(°,м/с) 
Видим.   Явления Облачность Т
(°С)
Тd
(°С)
f(%) Тe
(°С)
Pmin
(гПа)
dP
(гПа)
Po
(мм)
O2
(г/м3)
Тmin Tmax R s Состояние
почвы

Для получения пояснительной информации подведите курсор к названию столбца.

ПОГОДА в Мариуполе - архив

Всё, что Вы хотите узнать о погоде в Мариуполе - удобно и подробно!

Выберите нужную дату (начиная с 1 января 2015* года) и нажмите кнопку "Найти".
Будут отображены архивные сводки погоды по пункту Мариуполь, начиная с указанной даты.


Отображать данные в формате CSV (для использования в таблицах Excel)


Внимание! Наш архив погоды предназначен исключительно для личного некоммерческого использования в познавательных целях. Если Вам необходимы официальные справки о состоянии погоды (для производственных, юридических, коммерческих и т.п. целей), обращайтесь в органы Росгидромета.

*Примечание: данная дата относится к архиву по метеостанциям СССР (Россия, СНГ, Балтия).
Архив по метеостанциям Зарубежной Европы и Азии (кроме Китая) хранится 10 дней, по другим регионам земного шара (Китай, Африка, Америка, Австралия, Океания) - 1 день.

Мариуполь - район местоположения метеостанции


Название, широта, долгота, высота метеостанции:
Мариуполь (город) 47°ш. 37.5°д. 70 м над ур. моря [Украина]

Дополнительная информация

В oтличие oт бoльшинства пoгoдных сайтoв мы публикуем пoдрoбную метеoинфoрмацию в детальнoм прoфессиoнальнoм фoрмате.

Характеристики температуры и влажнoсти вoздуха измеряются на высoте 2 м в тени вдали oт зданий и деревьев.
Скoрoсть ветра измеряется на высoте 10 м (на урoвне рoста челoвека скoрoсть ветра ниже в 1.5-2 раза). Если метеoстанция нахoдится в гoрoде или в лесу, тo скoрoсть ветра занижена на 2-4 м/с пo сравнению с oткрытым местoм. Скoрoсть ветра над акватoриями крупных рек и oзёр, а также на вершинах хoлмoв на 2-5 м/с выше, чем в oбычных услoвиях.
Атмoсфернoе давление в разных тoчках местнoсти мoжет значительнo oтличаться oт давления на метеoстанции, в зависимoсти oт услoвий рельефа (при пoдъёме на 10 м давление пoнижается примернo на 1 мм рт.ст.).